Precipitable_Water
0.83 0.94 1.00 1.01 1.06 1.14 1.17 1.22 1.31 1.37 1.36 1.46 1.54 1.55 1.51 1.53 1.50 1.37 1.28 1.28 1.39 1.43 1.49 1.53 1.63 1.64 1.70 1.76 1.77 1.69 1.69 1.71 1.73
0.86 0.95 1.00 1.03 1.04 1.07 1.17 1.21 1.29 1.31 1.32 1.33 1.47 1.45 1.46 1.47 1.47 1.38 1.28 1.30 1.38 1.45 1.54 1.57 1.62 1.63 1.64 1.67 1.69 1.66 1.64 1.68 1.67
0.85 0.96 0.99 1.07 1.06 1.03 1.08 1.23 1.31 1.35 1.36 1.27 1.33 1.41 1.43 1.42 1.42 1.42 1.33 1.27 1.23 1.36 1.44 1.49 1.53 1.53 1.57 1.54 1.56 1.58 1.61 1.59 1.62
0.80 0.87 0.89 1.02 1.13 1.06 1.11 1.18 1.28 1.36 1.40 1.34 1.27 1.37 1.40 1.39 1.38 1.41 1.38 1.21 1.17 1.24 1.36 1.38 1.40 1.48 1.51 1.41 1.49 1.55 1.54 1.52 1.53
0.81 0.86 0.90 0.96 1.16 1.13 1.06 1.21 1.12 1.21 1.30 1.33 1.41 1.36 1.36 1.38 1.40 1.41 1.34 1.22 1.14 1.19 1.20 1.30 1.34 1.40 1.42 1.40 1.43 1.47 1.45 1.43 1.47
0.78 0.83 0.90 0.98 1.18 1.14 1.15 1.12 1.11 1.19 1.16 1.18 1.39 1.51 1.43 1.37 1.41 1.36 1.30 1.26 1.17 1.14 1.12 1.19 1.25 1.33 1.35 1.40 1.46 1.50 1.53 1.55 1.56
0.75 0.83 0.91 0.99 1.12 1.19 1.16 1.12 1.12 1.09 1.00 1.11 1.21 1.33 1.36 1.29 1.36 1.38 1.31 1.28 1.23 1.14 1.07 1.07 1.17 1.26 1.31 1.34 1.40 1.44 1.47 1.47 1.46
0.71 0.77 0.86 0.97 1.01 1.12 1.16 1.20 1.25 1.25 1.25 1.06 1.03 1.14 1.20 1.17 1.26 1.38 1.36 1.29 1.25 1.22 1.16 1.06 1.09 1.18 1.27 1.30 1.31 1.30 1.32 1.38 1.43
0.67 0.69 0.73 0.93 0.96 0.94 1.13 1.18 1.27 1.32 1.15 1.12 1.06 1.01 0.96 1.06 1.13 1.19 1.24 1.25 1.24 1.22 1.16 1.13 1.12 1.10 1.12 1.14 1.16 1.19 1.23 1.24 1.28
0.75 0.72 0.71 0.82 0.96 1.01 1.10 1.30 1.20 1.35 1.35 1.35 1.27 1.22 1.09 1.09 1.08 1.06 1.14 1.20 1.23 1.21 1.17 1.18 1.12 1.10 1.12 1.05 1.06 1.10 1.13 1.18 1.22
0.77 0.82 0.83 0.92 1.01 1.04 1.09 1.26 1.33 1.25 1.43 1.43 1.40 1.41 1.34 1.37 1.33 1.31 1.33 1.28 1.19 1.19 1.22 1.16 1.09 1.05 1.03 1.02 1.01 1.05 1.08 1.13 1.19
0.85 0.96 1.03 1.13 1.18 1.14 1.20 1.32 1.40 1.33 1.26 1.47 1.50 1.47 1.49 1.54 1.56 1.53 1.56 1.53 1.52 1.50 1.39 1.35 1.33 1.38 1.37 1.30 1.29 1.41 1.46 1.52 1.52
0.88 1.03 1.17 1.20 1.25 1.25 1.25 1.31 1.38 1.39 1.39 1.48 1.58 1.71 1.65 1.65 1.67 1.69 1.68 1.70 1.70 1.74 1.74 1.68 1.65 1.57 1.56 1.56 1.45 1.48 1.54 1.65 1.68
0.92 1.00 1.18 1.27 1.28 1.22 1.23 1.22 1.28 1.29 1.37 1.38 1.52 1.65 1.57 1.78 1.77 1.70 1.80 1.81 1.82 1.78 1.76 1.78 1.79 1.79 1.85 1.81 1.80 1.79 1.78 1.76 1.77
0.91 1.00 1.10 1.26 1.23 1.22 1.24 1.23 1.19 1.15 1.19 1.33 1.37 1.44 1.47 1.52 1.61 1.60 1.69 1.66 1.66 1.64 1.60 1.54 1.55 1.58 1.64 1.76 1.76 1.62 1.56 1.61 1.64
0.89 0.98 1.05 1.17 1.20 1.22 1.28 1.29 1.25 1.13 1.18 1.25 1.25 1.27 1.25 1.26 1.25 1.23 1.20 1.08 1.01 0.99 1.07 1.05 1.05 1.12 1.12 1.12 1.26 1.33 1.42 1.54 1.69
0.88 0.93 1.00 1.13 1.19 1.08 1.09 1.20 1.23 1.21 1.24 1.21 1.11 1.03 1.08 1.09 1.11 1.09 1.06 1.03 0.99 0.94 0.94 0.96 1.03 1.02 1.00 1.04 1.18 1.35 1.47 1.51 1.64
0.90 0.93 0.99 1.08 1.19 1.10 1.10 1.15 1.15 1.21 1.23 1.25 1.22 1.12 1.07 1.05 1.06 1.04 1.07 1.11 1.09 1.08 1.14 1.10 0.98 1.08 1.16 1.16 1.15 1.32 1.50 1.50 1.57
1.05 0.97 0.98 1.10 1.18 1.08 1.11 1.11 1.09 1.11 1.15 1.17 1.14 1.13 1.18 1.18 1.17 1.17 1.20 1.14 1.10 1.17 1.17 1.15 1.19 1.25 1.27 1.29 1.38 1.45 1.45 1.64 1.47
1.13 1.11 1.07 1.12 1.17 1.12 1.09 1.06 1.03 1.03 1.02 1.05 1.02 0.97 0.98 1.08 1.17 1.18 1.14 1.15 1.12 1.07 1.14 1.15 1.20 1.23 1.27 1.31 1.28 1.36 1.56 1.42 1.46
Wind_Speed
10 13 14 17 20 22 23 23 24 23 24 25 25 25 24 22 20 18 17 18 17 16 15 16 15 15 15 14 13 12 12 11 10
5 10 13 15 18 21 23 25 25 25 24 25 26 25 24 23 21 19 19 18 19 17 16 16 15 16 16 15 14 13 13 13 12
7 9 12 16 19 20 20 23 25 25 25 23 25 25 24 23 22 21 20 20 20 19 18 18 17 16 16 16 15 14 13 13 12
12 13 12 16 19 20 19 19 22 26 25 24 24 24 23 23 22 22 21 22 20 20 19 19 19 17 16 17 16 15 14 14 13
13 13 13 12 16 19 18 19 20 23 26 26 24 24 23 23 22 22 22 22 21 20 20 20 20 19 18 17 17 16 15 15 14
14 13 11 8 10 16 17 19 19 21 24 26 26 25 24 23 23 22 22 21 21 21 21 20 20 20 20 19 18 17 16 15 15
15 13 11 10 11 13 16 17 17 17 21 25 25 25 24 24 24 23 23 22 21 21 22 22 22 21 21 20 19 18 18 17 17
17 15 14 13 13 14 18 18 18 17 19 21 23 23 23 23 24 24 23 22 22 22 21 22 23 23 23 22 22 21 21 21 20
20 19 15 12 10 12 15 18 18 20 19 19 21 22 22 21 21 22 22 23 23 22 23 23 23 24 25 25 25 25 25 25 24
22 21 19 16 12 14 14 17 19 21 23 21 21 21 20 20 20 20 21 21 22 22 23 24 24 25 26 26 27 27 27 27 27
22 20 19 18 17 13 13 16 18 20 23 25 24 22 21 21 21 21 20 20 21 22 22 23 24 25 26 27 27 28 28 29 30
21 20 20 20 18 16 14 11 14 19 20 22 24 25 25 24 24 23 22 21 21 21 22 23 23 24 25 27 28 28 29 29 29
21 20 19 19 18 17 15 13 11 14 16 19 20 21 25 26 26 25 24 24 24 24 25 25 26 27 27 28 29 30 32 32 33
22 22 23 22 19 18 17 15 14 12 14 18 18 20 19 24 27 25 24 25 25 26 28 28 29 30 31 32 32 33 34 35 37
23 23 24 26 25 22 19 17 17 16 15 16 17 20 19 22 14 19 22 23 24 24 25 27 28 29 31 33 34 34 35 36 39
26 26 25 26 27 29 27 22 20 19 20 19 20 20 22 23 21 21 22 24 25 26 28 29 29 30 30 30 31 32 33 33 35
30 29 28 28 27 27 28 27 25 23 24 23 22 22 22 23 25 26 26 25 26 27 29 30 31 32 33 34 34 34 34 33 32
32 32 31 29 28 27 26 25 25 25 25 26 26 24 24 24 25 26 27 27 28 29 31 32 34 35 36 36 36 36 35 34 33
35 32 31 29 28 25 24 24 24 24 25 26 28 30 31 31 30 30 31 31 31 30 32 34 35 37 37 36 36 36 34 33 32
34 33 31 30 28 25 24 23 23 23 23 24 26 27 30 33 35 35 35 35 35 34 33 32 32 32 32 32 32 31 30 28 26
Wind_Direction
229 221 226 230 225 224 221 218 218 218 219 220 218 219 221 222 223 224 224 221 216 212 212 209 210 208 207 209 210 210 211 213 215
259 242 238 236 229 225 224 223 221 220 220 220 220 219 220 222 222 223 221 219 212 212 212 210 210 211 213 213 212 213 215 218 222
274 265 264 249 234 227 225 224 222 220 220 220 219 218 220 221 221 222 221 215 213 214 215 213 213 214 216 215 214 217 218 221 226
277 280 284 255 236 228 227 224 221 220 220 219 217 217 218 219 219 219 216 213 214 216 217 216 215 217 215 215 217 221 224 230 233
280 284 287 276 227 222 225 222 222 221 219 218 216 214 214 215 215 213 211 213 215 216 218 218 217 217 218 218 222 226 229 235 239
281 277 288 279 224 220 220 221 221 221 218 217 216 214 215 213 210 210 212 215 216 218 219 219 219 219 220 221 225 229 233 240 244
279 271 267 270 239 228 221 216 213 215 217 216 213 211 210 210 212 214 216 217 217 218 220 221 221 221 222 226 231 235 239 243 247
277 266 265 262 248 238 229 226 222 219 215 209 205 205 207 211 213 215 218 217 218 220 222 224 225 226 228 232 237 241 243 247 251
274 270 266 254 242 233 231 225 222 217 211 206 204 206 209 211 212 213 214 217 219 222 225 228 229 231 234 239 243 246 248 252 255
270 267 260 250 237 235 236 229 226 220 216 213 210 211 212 211 211 211 214 218 222 226 229 232 234 237 241 244 247 249 252 254 257
266 263 255 241 237 246 246 235 231 224 219 218 217 218 217 216 214 215 219 222 226 230 233 235 239 242 244 247 251 253 255 256 259
262 257 250 243 237 238 237 245 239 227 223 222 221 224 224 224 224 225 227 229 232 235 238 240 243 245 248 250 253 255 257 259 261
259 254 246 241 238 232 231 241 239 224 223 218 219 226 229 229 230 231 234 237 240 243 245 247 250 251 254 256 259 259 260 261 263
256 250 243 238 234 232 233 236 233 227 228 231 225 228 231 231 231 232 239 243 246 249 250 252 254 256 259 260 262 263 263 263 264
254 250 245 239 236 234 236 236 234 231 231 239 235 231 235 235 243 232 239 243 247 251 253 256 258 260 263 264 264 265 267 266 265
249 247 245 241 238 238 238 241 241 241 241 243 242 244 247 251 247 248 247 250 254 256 258 260 263 264 266 267 267 268 269 270 269
246 244 243 241 239 241 241 242 245 246 246 248 251 253 253 253 250 251 252 254 258 261 263 264 267 266 267 267 267 269 270 270 270
243 242 240 239 238 238 241 243 246 248 251 251 251 253 255 253 254 256 257 259 262 264 265 268 269 270 269 269 268 268 267 267 266
239 239 235 233 232 235 238 244 249 254 256 258 258 255 255 257 258 259 261 263 265 268 269 272 273 270 270 270 269 266 265 264 264
234 233 229 227 228 234 239 245 252 256 257 259 261 261 261 260 260 260 262 263 264 266 268 273 275 276 274 271 268 266 260 258 257